Vertical_Velocity
-1 0 -2 -1 -1 -4 -2 -3 -6 -4 -4 -4 -4 -3 -4 -2 -3 -3 -5 -5 -4 -6 -4 -3 -3 -4 1 -4 -0 0 3 -7 2 13 4 -1 3 2 -1 1 -3 -5 6 -6 3 4 -6
0 0 -0 -1 0 -2 -5 -3 -6 -4 -1 -3 -3 -4 -3 -4 -2 -4 -3 -4 -4 -5 -4 -3 -2 -4 -1 -3 -1 7 -3 1 4 4 -3 3 2 1 0 1 -1 5 2 1 8 -0 4
-0 1 -1 -1 -1 -1 -5 -2 -7 -1 -3 -3 -4 -4 -4 -1 -3 -2 -2 -3 -2 -3 -2 -2 -2 -3 -3 1 3 3 1 2 3 4 2 1 -0 -1 2 2 -3 1 -1 -3 -2 -4 -1
0 -1 1 -1 -1 -0 -4 -3 -4 -2 -2 -2 -1 -3 -6 -0 -3 1 -0 -3 -1 -4 -1 -0 -2 1 -2 -1 0 1 -2 3 10 2 -3 -2 -0 1 3 -2 -2 -2 -1 -3 -3 4 9
0 0 1 -1 0 -1 -4 -2 -5 -2 -3 -4 -1 -1 -1 2 1 -0 -1 -1 -0 -3 -1 1 -1 3 -0 -1 -2 -1 2 6 -2 2 -1 6 -0 -0 2 -0 -1 -10 -7 -1 -3 5 -4
0 -1 1 -2 -0 -0 -1 -3 -4 -4 -3 2 -0 -1 -2 -2 3 0 -2 0 -0 1 -3 0 -3 2 1 -2 2 1 0 3 1 2 -2 -0 0 -3 -4 -9 -6 -2 -1 3 -1 8 -5
3 -3 -0 -2 1 -2 1 -6 -2 -3 -4 -1 1 -1 -5 -2 2 1 1 -0 2 2 -1 1 -6 -0 1 -4 -3 5 -1 7 -4 -7 -3 2 -6 1 9 4 4 2 7 3 -2 4 -0
1 -1 -1 -2 2 -3 -2 -4 -2 -3 -4 0 2 2 -4 -2 -2 3 0 -1 -2 -0 -4 3 -2 -3 2 -3 1 -3 -3 -3 -1 -2 -4 13 4 4 3 -2 3 4 3 2 -1 0 -5
1 -2 -2 -0 2 -2 -3 -3 -3 -0 -5 -3 -0 2 1 -5 -2 2 1 -1 2 3 -2 1 0 -3 -1 -3 -2 -2 -1 -2 1 5 8 6 4 1 -1 3 1 -0 2 -1 1 -1 -3
1 -1 -2 -1 1 -1 -3 -4 -1 -1 -3 -3 -4 -0 -0 -4 -5 -3 1 0 -2 -2 -2 -2 0 3 -5 -1 -3 -5 -4 -2 -3 11 7 9 1 2 2 1 1 1 0 -1 -1 -1 -4
1 -1 -1 1 -0 -1 -2 -2 -2 -2 -2 -3 -4 -1 -2 -7 -5 -4 -1 -2 -2 0 2 2 -1 -4 -3 -4 1 -2 -2 -1 0 6 1 2 -3 2 -0 4 2 1 0 -2 -2 -3 -2
1 -1 0 1 -0 -0 -4 -2 -4 -0 -2 -2 -0 -1 -1 -1 -4 -6 -2 -1 -0 -5 -7 -2 -0 -3 -1 -9 1 -0 1 -0 4 -2 8 -1 0 -3 -1 1 -1 -2 -2 0 -1 1 -13
-1 0 -1 3 -1 -0 -3 -3 -4 0 -1 -1 -1 -1 -1 -5 -1 -8 -6 -1 -1 1 2 -1 -2 -3 -4 -3 -11 -1 0 -5 -5 3 -1 -3 -0 0 -1 -2 -4 -1 -0 -3 -6 -13 -1
-1 -1 -1 1 -0 -1 -1 -3 -2 -2 -0 -1 0 -0 -1 -3 -5 -6 -6 -4 1 3 -1 -0 2 1 -2 -4 -4 -8 -1 1 3 -1 -0 1 -1 -1 -0 2 7 5 -1 -2 -6 -6 3
0 0 -3 -1 -0 0 -1 -1 -3 -2 -1 -1 1 -1 -1 -4 -4 -5 -3 -9 -4 1 -2 -2 -1 -3 0 -0 -3 -5 -5 1 -1 -1 -0 -1 2 -0 1 -0 -1 3 -10 -1 -1 -1 -4
-1 2 -1 -2 1 -1 -1 0 -1 -1 -1 -2 -1 -1 -1 -3 -4 -3 -3 -7 -7 -5 1 -0 -1 -1 -2 -0 1 2 -9 -2 1 2 -1 -2 -0 -1 -1 -0 -2 -3 5 -5 -5 -11 -9
1 -0 -0 -4 1 -1 1 -1 -1 0 -1 -1 0 -2 -1 -2 -2 -8 -3 -4 -6 -5 -2 -2 1 -0 0 2 -0 1 3 -4 -3 -1 1 2 1 -0 -0 -5 1 1 0 -6 3 -10 -5
3 -1 -0 -3 1 1 -0 -2 -1 -1 -0 -1 -0 0 -1 -0 0 -3 -3 -0 -1 -0 -2 -2 -4 -3 2 -1 -3 -3 -1 -1 -1 -1 -1 -1 -0 1 1 5 -0 0 0 -4 -3 2 0
1 1 -1 -1 0 -1 0 -2 -1 -2 -2 -2 1 2 0 1 3 2 -1 -3 -4 -5 -5 -7 -3 -3 -4 -6 -4 1 -0 -6 0 1 1 8 -3 4 -1 -2 -1 -2 5 5 -2 -2 -5
1 1 -1 -1 -1 1 -0 -2 -1 -2 -4 -2 -1 2 -1 1 -1 -1 5 3 -1 -2 -3 -4 -2 -1 0 8 2 0 6 2 -3 -2 -0 1 4 3 2 2 -2 -3 1 2 -4 -24 15
2 0 -0 -2 0 1 0 -1 -2 -1 -3 -1 -1 -2 -1 0 -2 -0 2 1 -1 -2 0 -2 0 -2 5 -3 3 11 -0 4 4 -2 -3 -1 1 1 2 1 0 1 2 -3 -8 13 -31
-1 -1 -0 0 1 2 -0 -3 -2 -2 -2 -1 -0 1 -4 -1 -1 -3 -5 -1 4 2 -3 -0 4 3 3 6 13 6 5 4 4 2 -3 0 -1 -1 2 -1 0 -2 -4 0 3 1 -2
-1 1 0 1 0 0 1 -1 -1 -2 -1 -1 -1 -2 -2 -2 2 -1 2 -1 -9 1 15 -7 -2 4 1 2 -3 3 5 5 3 3 2 -5 -1 1 2 -6 -6 -6 16 -3 -6 3 -1
3 -1 2 2 -0 -1 1 -0 -2 -3 -2 -2 -1 1 0 1 -0 -4 1 4 7 -4 -5 19 -11 1 22 4 4 4 4 4 2 3 2 3 0 -4 1 -3 -19 20 2 -1 -1 1 -4
3 -1 -0 3 0 -1 1 -0 -2 -2 -3 -2 -2 -0 -1 1 2 -3 -2 2 5 7 -10 -14 7 -0 5 14 3 4 2 3 7 1 3 2 0 -1 -6 1 3 8 1 -1 -2 6 -6
0 2 2 0 3 -1 -0 1 -1 -1 -2 1 -1 0 -2 -5 5 -1 -0 -1 2 4 13 2 -9 1 -2 1 -0 -3 -0 10 7 2 3 3 1 -2 -0 -3 -5 7 3 -1 1 3 -3
-1 2 1 1 -1 -1 -1 2 0 -1 -1 -1 1 -2 -3 -6 5 -8 -4 -4 -1 -7 5 -8 -4 -4 4 3 7 -3 -5 10 -8 3 6 -1 1 -3 -4 -3 -0 5 -2 -1 -0 0 -3
1 3 -1 1 -1 -3 -1 1 -0 -2 -1 -0 2 5 4 -2 -9 -8 -9 -3 -3 -0 2 -4 -2 -1 1 -3 3 3 -3 -0 4 -1 7 4 -7 3 1 -3 -1 -0 -0 1 -2 3 0
3 5 2 -0 -0 -1 1 1 -1 -0 -4 -3 -1 -2 8 16 -15 -6 -11 -2 -3 -6 -5 4 0 2 0 -1 -5 1 12 -3 5 -1 3 -2 3 -4 -3 2 -4 0 0 0 -0 2 1
Height
5820 5815 5809 5802 5794 5785 5774 5763 5752 5738 5724 5709 5693 5680 5670 5658 5646 5634 5620 5606 5592 5579 5566 5558 5557 5557 5557 5561 5568 5580 5592 5602 5615 5626 5636 5650 5662 5673 5681 5691 5699 5705 5712 5719 5727 5735 5741
5818 5812 5807 5800 5792 5783 5773 5762 5751 5737 5724 5709 5694 5681 5670 5660 5648 5636 5622 5608 5594 5580 5568 5558 5554 5554 5554 5556 5563 5575 5586 5600 5613 5624 5633 5645 5658 5668 5677 5687 5695 5700 5706 5714 5722 5731 5735
5814 5810 5805 5797 5789 5781 5771 5761 5751 5736 5724 5710 5697 5682 5671 5660 5650 5638 5625 5611 5597 5583 5571 5562 5556 5553 5553 5555 5558 5570 5584 5599 5612 5622 5634 5643 5654 5665 5675 5683 5689 5696 5704 5710 5718 5727 5732
5811 5807 5801 5795 5787 5779 5770 5760 5749 5737 5725 5712 5698 5684 5672 5662 5652 5641 5629 5616 5603 5590 5576 5566 5560 5555 5554 5554 5560 5569 5583 5599 5611 5621 5633 5643 5652 5662 5671 5680 5686 5691 5699 5706 5714 5721 5728
5807 5803 5799 5792 5785 5778 5770 5760 5749 5738 5726 5711 5699 5685 5675 5664 5654 5644 5633 5621 5609 5598 5584 5572 5565 5560 5557 5557 5563 5571 5583 5599 5610 5620 5632 5643 5651 5661 5670 5677 5684 5688 5697 5704 5710 5716 5721
5803 5800 5796 5789 5783 5777 5768 5759 5750 5739 5726 5713 5701 5690 5678 5667 5656 5647 5637 5627 5616 5605 5591 5579 5569 5566 5563 5564 5569 5576 5587 5600 5610 5622 5632 5642 5650 5659 5668 5676 5682 5688 5694 5701 5707 5714 5718
5799 5796 5792 5787 5781 5775 5767 5759 5749 5738 5728 5716 5703 5691 5681 5670 5659 5650 5642 5633 5624 5613 5597 5586 5575 5568 5566 5571 5576 5583 5592 5602 5612 5624 5636 5646 5652 5661 5670 5676 5681 5687 5694 5700 5704 5710 5712
5796 5792 5789 5784 5778 5773 5766 5757 5748 5740 5728 5717 5705 5693 5683 5673 5662 5653 5645 5637 5629 5620 5607 5595 5582 5575 5572 5576 5583 5588 5597 5607 5616 5627 5638 5645 5654 5661 5667 5673 5679 5685 5691 5698 5701 5704 5708
5792 5789 5785 5781 5776 5771 5764 5756 5747 5738 5729 5719 5708 5696 5685 5675 5665 5656 5647 5641 5634 5626 5615 5604 5592 5582 5580 5583 5591 5596 5603 5612 5620 5631 5639 5647 5655 5659 5665 5672 5678 5684 5690 5695 5698 5701 5703
5788 5785 5782 5778 5774 5768 5762 5755 5746 5738 5729 5719 5709 5699 5689 5677 5669 5658 5651 5644 5638 5632 5623 5614 5603 5593 5591 5593 5600 5605 5610 5618 5625 5634 5641 5647 5653 5660 5664 5670 5677 5683 5688 5691 5693 5697 5701
5783 5781 5778 5775 5770 5765 5760 5753 5745 5736 5729 5719 5710 5701 5691 5679 5670 5661 5653 5646 5641 5636 5630 5623 5614 5604 5602 5605 5610 5615 5618 5624 5631 5637 5644 5650 5655 5660 5665 5671 5675 5681 5686 5689 5691 5693 5697
5778 5776 5774 5771 5767 5762 5756 5751 5744 5735 5728 5719 5711 5703 5694 5683 5674 5664 5656 5650 5644 5641 5635 5629 5623 5617 5614 5615 5617 5621 5626 5630 5636 5640 5645 5651 5656 5659 5664 5668 5673 5677 5683 5687 5689 5692 5695
5773 5771 5769 5767 5762 5758 5753 5748 5742 5734 5727 5719 5711 5704 5695 5686 5677 5668 5660 5653 5648 5642 5640 5636 5631 5627 5623 5623 5625 5626 5630 5634 5638 5642 5646 5651 5655 5660 5663 5667 5671 5676 5680 5683 5687 5688 5689
5768 5766 5765 5762 5758 5754 5749 5745 5739 5732 5726 5719 5710 5704 5697 5688 5678 5669 5663 5655 5650 5645 5643 5641 5637 5633 5630 5628 5630 5632 5635 5639 5642 5645 5649 5653 5656 5659 5664 5667 5672 5675 5678 5681 5683 5685 5688
5762 5761 5759 5757 5755 5750 5746 5741 5736 5730 5725 5718 5709 5702 5696 5688 5680 5672 5666 5658 5652 5648 5645 5644 5641 5640 5637 5634 5635 5637 5638 5642 5645 5648 5651 5652 5655 5658 5662 5666 5669 5671 5672 5676 5680 5683 5685
5754 5754 5753 5752 5750 5746 5742 5738 5733 5727 5722 5716 5708 5701 5695 5688 5680 5673 5667 5660 5654 5648 5645 5645 5644 5643 5642 5639 5639 5640 5641 5643 5645 5648 5649 5651 5653 5655 5658 5661 5664 5667 5672 5673 5674 5676 5678
5748 5747 5746 5746 5745 5740 5738 5734 5729 5724 5718 5713 5706 5699 5693 5687 5680 5672 5666 5659 5654 5649 5645 5644 5643 5643 5643 5643 5641 5641 5643 5643 5643 5645 5647 5648 5651 5653 5655 5658 5660 5664 5666 5668 5671 5671 5673
5740 5740 5740 5740 5739 5735 5732 5729 5725 5720 5715 5709 5703 5698 5691 5685 5680 5671 5665 5658 5654 5650 5646 5643 5641 5641 5640 5641 5640 5639 5639 5639 5639 5639 5642 5644 5646 5648 5651 5653 5655 5657 5659 5660 5662 5665 5668
5734 5733 5733 5734 5733 5730 5727 5725 5721 5716 5711 5706 5701 5695 5689 5683 5677 5670 5663 5657 5652 5648 5646 5642 5639 5637 5635 5636 5636 5635 5635 5634 5635 5635 5636 5638 5641 5642 5644 5646 5648 5649 5652 5656 5658 5660 5664
5727 5726 5727 5727 5726 5724 5721 5720 5716 5712 5707 5703 5698 5692 5687 5679 5674 5669 5662 5655 5650 5647 5643 5640 5637 5631 5630 5630 5629 5628 5628 5629 5630 5631 5631 5631 5633 5636 5638 5640 5642 5642 5645 5647 5650 5651 5655
5719 5719 5720 5721 5720 5719 5716 5714 5710 5706 5702 5698 5693 5689 5683 5676 5671 5665 5658 5650 5646 5642 5639 5633 5628 5623 5619 5619 5619 5621 5620 5622 5624 5625 5626 5627 5628 5631 5633 5635 5636 5637 5638 5639 5641 5646 5647
5712 5712 5712 5714 5713 5712 5709 5707 5704 5701 5697 5693 5688 5684 5679 5673 5666 5661 5653 5645 5641 5635 5632 5626 5621 5615 5610 5609 5609 5609 5611 5614 5615 5618 5621 5622 5623 5625 5627 5628 5630 5631 5633 5634 5637 5639 5640
5704 5705 5706 5707 5705 5705 5702 5700 5697 5696 5692 5687 5682 5678 5674 5668 5661 5655 5648 5639 5635 5629 5627 5616 5610 5604 5599 5596 5595 5599 5602 5605 5607 5610 5612 5615 5617 5619 5621 5622 5623 5624 5631 5630 5632 5634 5635
5696 5697 5698 5698 5697 5696 5695 5694 5691 5690 5686 5682 5677 5673 5670 5664 5657 5650 5642 5633 5628 5621 5616 5609 5595 5587 5585 5583 5585 5588 5591 5595 5598 5601 5604 5608 5611 5612 5614 5616 5615 5622 5624 5623 5623 5626 5626
5688 5689 5690 5690 5689 5688 5688 5686 5684 5683 5681 5676 5671 5667 5664 5659 5652 5646 5637 5627 5620 5612 5605 5593 5585 5572 5568 5569 5573 5578 5581 5585 5590 5593 5597 5600 5603 5604 5606 5609 5611 5614 5617 5617 5616 5621 5620
5680 5681 5682 5682 5681 5680 5680 5678 5677 5676 5673 5669 5664 5660 5657 5653 5647 5638 5630 5620 5612 5604 5597 5584 5566 5558 5553 5556 5560 5565 5571 5578 5581 5586 5590 5593 5596 5598 5600 5602 5603 5608 5610 5610 5611 5614 5614
5670 5672 5673 5673 5672 5672 5672 5670 5669 5667 5665 5662 5658 5654 5650 5646 5642 5631 5622 5612 5602 5591 5582 5569 5556 5549 5547 5547 5552 5558 5563 5568 5573 5578 5585 5586 5589 5591 5593 5594 5598 5602 5601 5602 5605 5610 5608
5661 5663 5664 5664 5664 5663 5663 5662 5661 5658 5657 5655 5651 5647 5642 5638 5634 5623 5614 5604 5595 5582 5570 5557 5548 5543 5542 5544 5548 5554 5558 5563 5568 5572 5577 5581 5583 5586 5588 5589 5592 5594 5595 5598 5599 5601 5603
5652 5654 5655 5655 5654 5654 5654 5653 5651 5651 5649 5647 5643 5639 5633 5631 5629 5616 5605 5597 5587 5574 5562 5551 5544 5542 5541 5543 5545 5548 5552 5556 5560 5565 5570 5575 5578 5580 5583 5585 5585 5588 5591 5593 5594 5596 5598